DELTA 1 DEB, 14471

Orbit data source: Space-Track

DELTA 1 DEB, 14471 is space debris in SSO originally from a launch on Thu, 29 Jul 1976 UTC launched from the Air Force Western Test Range (AFWTR). Debris objects in space refer to the collection of defunct objects orbiting the Earth. Examples of debris include non-operational satellites, rocket bodies, and fragments generated from explosions, collisions, or faulty payload assembly.

Loading next visibility...
Identifier
14471, 1976-077EN
Orbit
SSO
Country
Flag of USUS
Related business
Manufacturer
Unknown
Mission
Spacecraft
Bus & Motor
Unknown
Mass
Unknown
Launch date (UTC)
1976-07-29 (50 years ago)
Launch vehicle
Unknown
Launch site
Air Force Western Test Range (AFWTR)
Object type
Payload
Rocket body
Debris
Shape & HBR
Unknown shape, 0.1 m
Radar Cross Section
Medium (>0.1 m² and <1 m²)

Expand to show TLE details & history
Last TLE update: 1 day ago

TLE from 1 day ago
0 DELTA 1 DEB
1 14471U 76077EN  26170.38328145  .00000084  00000-0  11366-2 0  9995
2 14471 102.4564 142.7682 0125801 231.1549 287.0118 12.25602478939491
Epoch: 2026-06-19T09:11Z
TLE epoch observation values (Epoch: 2026-06-19T09:11:55.517Z)
Latitude
22.65892°
Longitude
-77.56085°
Altitude
1,542.528 km
Speed
7.11 km/s
True Right ascension
21h 52m 08s
True Declination
22° 32' 56"
Sunlit
Object was in daylight at epoch
Visualization orbit readout
Latitude
Unknown
Longitude
Unknown
Altitude
Unknown
Speed
Unknown
Apparent Right ascension
Unknown
Apparent Declination
Unknown
Sunlit
N/A
Visualization observer readout
Local Sidereal Time
23:39:05
Azimuth
Unknown
Elevation
Unknown
Doppler factor
Unknown
Orbital elements
Apogee altitude
1,665.789 km
Perigee altitude
1,465.917 km
Semi-major axis
7,943.99 km
Eccentricity
0.01258
Inclination
102.4564°
RAAN
142.7682°
Arg. of periapsis
231.1549°
True anomaly
285.62707°
Mean anomaly
287.0118°
Eccentric anomaly
286.32006°
Mean motion
3.06539 °/min
Orbital period
117.44 mins
BSTAR
0.0011366
Loading maneuver chart data...
Computing Atmospheric mass density...
Loading historical data...
Loading historical data...
Loading historical data...
Loading historical data...
Loading historical data...
Loading historical data...
Loading historical data...

Documentation

Showing up to 5 results
|